Location: Central Coast
(33.3208°S, 151.2336°E)
Time: 02:15:34
(UTC+11:00)

Tiangong 2 - Pass Details

Date: 17 October 2017
Orbit: 388 x 391 km, 42.8° (Epoch: 23 October)

Event Time Altitude Azimuth Distance (km) Brightness Sun altitude
Rises 19:33:29 0° 242° (WSW) 2,298 7.0 -5.7°
Reaches altitude 10° 19:35:35 10° 244° (WSW) 1,436 5.7 -6.1°
Maximum altitude 19:38:49 71° 328° (NNW) 419 1.3 -6.8°
Drops below altitude 10° 19:42:01 10° 52° (NE) 1,422 3.3 -7.4°
Enters shadow 19:42:17 - 53° (NE) 1,530 3.5 -7.5°
